Tracking 19625 objects as of 26-May-2019
HD Live streaming from Space Station
objects crossing your sky now
Watch Starlink satellites crossing your sky!

THORAD AGENA D DEB

Track THORAD AGENA D DEB now!
10-day predictions


NORAD ID: 18513
Int'l Code: 1970-025PN
Perigee: 805.6 km
Apogee: 892.6 km
Inclination: 99.8 °
Period: 101.8 minutes
Semi major axis: 7220 km
RCS: 0.0038 m2 (small)
Launch date: April 8, 1970
Source: United States (US)
Launch site: AIR FORCE WESTERN TEST RANGE (AFWTR)

Note: This is SATELLITE DEBRIS
aabbcc
Your satellite tracking list
Your tracking list is empty




NASA's NSSDC Master Catalog

Two Line Element Set (TLE):
1 18513U 70025PN  19145.87244047 +.00000392 +00000-0 +22508-3 0  9992
2 18513 099.7605 118.6762 0060219 056.3273 007.5757 14.15097881758927
Source of the keplerian elements: AFSPC